STARLINK-4797 (53852 NORAD) Tracking and Keplerian Element Data

This shows tracking and keplerian element data for the satellite.

Feedback or suggestion? Click here.




ElementValue
Catalog53852
NameSTARLINK-4797
Epoch Orbit1053
Epoch Day325.33334491
Epoch Year2022
RAAN305.5584
Inclination53.2146
Eccentricity0.0004214
Argument of Perigee6.0128
Mean Anonmoly61.6606
Mean Motion15.73179573
Decay Rate0.00037959
L11 53852U 22114AL 22325.33334491 .00037959 00000+0 27380-3 0 9992
L22 53852 53.2146 305.5584 0004214 6.0128 61.6606 15.73179573 10536



Live tracking and technical data element details for STARLINK-4797 (NORAD 53852). STARLINK-4797 can be tracked NOW for your location showing map with azimuth and elevation plus other details from your city location.







IsCatalogInMostPopularTable: catalog: 53852, numindb: -1

Insert: records affected: 1


GetName: 53852 STARLINK-4797

Hit Count: inserted at: Thu, 08 Dec 2022 09:15:18 GMT